Showing default

SHIYAN 27F, 63604

Orbit data source: Space-Track

SHIYAN 27F, 63604 is a payload satellite owned by CAST (CN) in SSO that was launched on Fri, 18 Apr 2025 UTC via a CHANG ZHENG 6A launch vehicle from the Taiyaun Space Center, China (TSC). Payload-class satellites include a variety of spacecraft equipped with specific instruments for various scientific and technological missions. These include communications satellites like Starlink; space stations such as the ISS; scientific satellites like the Hubble; Earth observation satellites from companies like Planet Labs, Umbra, and HawkEye 360; GPS; miniature CubeSats for education and research; and military/defense satellites.

Loading next visibility...
Identifier
63604, 2025-078F
Orbit
SSO
Country
Flag of CNCN / PRC
Related business
Manufacturer
CAST
Mission
Operational Defense Radar Imaging
Bus & Motor
SW27, Unknown motor
Mass
300 kg wet, ~300 kg dry
Launch date (UTC)
2025-04-18 (1 year ago)
Launch vehicle
CHANG ZHENG 6A
Launch site
Taiyaun Space Center, China (TSC)
Object type
Payload
Rocket body
Debris
Shape & HBR
Box + 1 Pan, 14.5 m
Radar Cross Section
13.200 m², Large (>1 m²)

Expand to show TLE details & history
Last TLE update: 11 hours ago

TLE from 11 hours ago
0 SHIYAN 27F
1 63604U 25078F   26171.50169398 -.00000001  00000-0  60083-4 0  9992
2 63604  99.6897 178.6659 0001212  86.4388 273.6889 13.57242036 57989
Epoch: 2026-06-20T12:02Z
TLE epoch observation values (Epoch: 2026-06-20T12:02:26.359Z)
Latitude
-0.00004°
Longitude
89.34067°
Altitude
1,048.47 km
Speed
7.328 km/s
True Right ascension
11h 54m 39s
True Declination
0° 00' 00"
Sunlit
Object was in daylight at epoch
Visualization orbit readout
Latitude
Unknown
Longitude
Unknown
Altitude
Unknown
Speed
Unknown
Apparent Right ascension
Unknown
Apparent Declination
Unknown
Sunlit
N/A
Visualization observer readout
Local Sidereal Time
10:20:24
Azimuth
Unknown
Elevation
Unknown
Doppler factor
Unknown
Orbital elements
Apogee altitude
1,043.923 km
Perigee altitude
1,042.124 km
Semi-major axis
7,421.16 km
Eccentricity
0.00012
Inclination
99.6897°
RAAN
178.6659°
Arg. of periapsis
86.4388°
True anomaly
273.67504°
Mean anomaly
273.6889°
Eccentric anomaly
273.68197°
Mean motion
3.39497 °/min
Orbital period
106.04 mins
BSTAR
0.000060083
Loading maneuver chart data...
Computing Atmospheric mass density...
Loading historical data...
Loading historical data...
Loading historical data...
Loading historical data...
Loading historical data...
Loading historical data...
Loading historical data...

Documentation

Showing up to 5 results
|